[[{"header":{"parameterUnit":"m.s-1","parameterCategory":1,"la1":30.2991,"la2":30.254,"lo1":-89.0895,"lo2":-89.0444,"dy":0.0017,"dx":0.0017,"nx":28,"ny":28,"refTime":"2024-08-24T09:00:00:Z","depth":0,"parameterNumber":2,"parameterNumberName":"U-component_of_WINDS"},"data":[0,0,0,0,0,0,0,0,0,0,0,0,0,0,0,0,0,0,0,0,0,0,0,0,0,0,0,0,0,0,0,0,0,0,0,0,0,0,0,0,0,0,0,0,0,0,0,0,0,0,0,0,0,0,0,0,0,0,-4.9573,-4.9573,0,-4.9587,-4.9587,-4.9587,-4.9386,-4.938,-4.9375,-4.937,-4.9384,-4.9389,-4.9395,0,0,0,0,0,0,0,0,0,0,0,0,0,-4.9373,-4.9378,-4.9573,-4.9573,-4.9574,-4.9587,-4.9587,-4.9587,-4.9387,-4.938,-4.9373,-4.9367,-4.9382,-4.9389,-4.9395,0,0,0,0,0,0,0,0,0,0,0,0,0,-4.9431,-4.9379,-4.9573,-4.9475,-4.9466,-4.9587,-4.9587,-4.9587,-4.9388,-4.938,-4.9372,-4.9364,-4.938,-4.9388,-4.9396,-4.9611,0,0,-4.9421,-4.9425,0,0,0,0,0,0,0,0,-4.9428,-4.9439,-4.9489,-4.9482,-4.9473,-4.9476,-4.9521,-4.9595,-4.939,-4.9418,-4.937,-4.936,-4.9421,-4.9426,-4.9446,-4.9612,-4.9613,-4.9422,-4.9427,-4.9431,-4.9433,0,0,0,0,0,0,0,-4.9424,-4.9437,-4.9578,-4.949,-4.948,-4.943,-4.9429,-4.9535,-4.9466,-4.9415,-4.94,-4.9405,-4.9415,-4.9439,-4.9445,-4.9613,-4.9422,-4.9429,-4.9434,-4.9437,-4.9956,-4.9964,0,0,0,0,0,0,-4.9434,-4.9435,-4.9578,-4.9579,-4.943,-4.9441,-4.944,-4.9483,-4.9464,-4.9453,-4.9412,-4.9395,-4.9429,-4.9436,-4.9445,-4.9696,-4.9431,-4.9438,-4.9443,-4.9947,-4.9958,-4.9967,0,0,0,0,0,0,-4.943,-4.9448,-4.9577,-4.9503,-4.9516,-4.9453,-4.9504,-4.9488,-4.9511,-4.9461,-4.9448,-4.9449,-4.9423,-4.9433,-4.9571,-4.9693,-4.9442,-4.9449,-4.9937,-4.995,-4.9963,-5.02,0,0,0,0,0,0,-4.9425,-4.9448,-4.9529,-4.9506,-4.952,-4.9705,-4.9511,-4.9494,-4.9526,-4.9505,-4.9492,-4.9483,-4.9417,-4.956,-4.958,-4.97,-4.9456,-4.9925,-4.9943,-4.9958,-5.0181,-5.022,-5.0253,0,0,0,0,0,-4.9419,-4.9596,-4.9535,-4.9553,-4.9621,-4.9712,-4.972,-4.9641,-4.9537,-4.9618,-4.9586,-4.9483,-4.9677,-4.9576,-4.9596,-4.9721,-4.9917,-4.9938,-4.9957,-5.0165,-5.0212,-5.0252,0,0,0,0,0,0,-4.9635,-4.9591,-4.9523,-4.9697,-4.971,-4.9678,-4.9778,-4.9693,-4.9736,-4.9714,-4.9614,-4.9613,-4.9768,-4.9758,-4.9646,-4.9928,-4.9779,-4.9804,-4.993,-4.9974,-5.0009,-5.0009,-4.9463,0,0,0,0,0,-4.9703,-4.9781,-4.9738,-4.9896,-4.9906,-4.9842,-4.9878,-4.9816,-4.9825,-4.983,-4.9808,-4.9821,-4.9884,-4.9928,-4.9984,-5.0178,-5.0173,-5.0274,-5.031,-5.0339,-5.0363,-5.0465,-5.051,-5.0033,-5.0032,-5.0032,0,0,-4.9844,-4.9829,-4.9885,-4.9939,-4.9942,-5.0025,-4.9847,-4.9943,-5.0004,-4.9844,-4.9973,-4.9958,-4.9966,-5.0133,-5.0206,-5.013,-5.0493,-5.0365,-5.0389,-5.0396,-5.049,-5.0535,-5.0576,-5.0046,-5.0044,-5.0041,0,0,-5.0144,-5.0141,-5.0272,-5.0279,-5.0285,-5.0241,-5.0273,-5.0254,-5.0237,-5.0365,-5.0248,-5.0318,-5.043,-5.0441,-5.0461,-5.0765,-5.0673,-5.0786,-5.0974,-5.1076,-5.1113,-5.1146,-5.1256,-5.1296,-5.0809,-5.081,-5.081,0,-5.0318,-5.0439,-5.0351,-5.0455,-5.0482,-5.0341,-5.0474,-5.0485,-5.0509,-5.0532,-5.0446,-5.0583,-5.0578,-5.0747,-5.0821,-5.0842,-5.0875,-5.0788,-5.1115,-5.1147,-5.1176,-5.128,-5.1321,-5.0823,-5.0822,-5.082,-5.0819,0,-5.0654,-5.074,-5.0845,-5.0873,-5.0912,-5.103,-5.096,-5.101,-5.0945,-5.091,-5.1043,-5.1032,-5.1084,-5.1119,-5.1056,-5.1279,-5.1231,-5.1132,-5.098,-5.1237,-5.1333,-5.1372,-5.0843,-5.0838,-5.0834,-5.0831,0,0,-5.1091,-5.1068,-5.1109,-5.112,-5.1116,-5.1181,-5.1292,-5.1343,-5.1388,-5.141,-5.1501,-5.1599,-5.1507,-5.153,-5.1467,-5.1556,-5.1799,-5.1445,-5.1444,-5.1513,-5.2045,-5.2121,-5.2169,-5.1737,-5.1745,-5.175,-5.2045,0,-5.1383,-5.1573,-5.1497,-5.1693,-5.1772,-5.1639,-5.1736,-5.1745,-5.1716,-5.1778,-5.1744,-5.1816,-5.1689,-5.1702,-5.1784,-5.1753,-5.1905,-5.173,-5.1822,-5.1827,-5.1826,-5.2218,-5.2298,-5.2577,-5.2082,-5.2088,-5.2093,0,-5.175,-5.1787,-5.1992,-5.1975,-5.2005,-5.2094,-5.2134,-5.2195,-5.2202,-5.2174,-5.2201,-5.2118,-5.2227,-5.2075,-5.2223,-5.2106,-5.2139,-5.2129,-5.2138,-5.2145,-5.1976,-5.2237,-5.2664,-5.2707,-5.215,-5.2146,-5.2142,0,-5.205,-5.2151,-5.2286,-5.2299,-5.2283,-5.2349,-5.2345,-5.2344,-5.2379,-5.2414,-5.2436,-5.2484,-5.2511,-5.255,-5.2482,-5.2377,-5.2641,-5.2482,-5.2621,-5.2624,-5.2683,-5.2681,-5.3124,-5.2704,-5.2703,-5.2702,-5.2702,0,-5.2385,-5.2516,-5.242,-5.2504,-5.2647,-5.2557,-5.2701,-5.2682,-5.2683,-5.2761,-5.2648,-5.2724,-5.263,-5.2696,-5.2644,-5.2775,-5.2788,-5.2769,-5.2754,-5.278,-5.2783,-5.2801,-5.278,-5.2713,-5.2711,-5.2709,-5.2707,0,-5.2744,-5.2685,-5.2825,-5.2798,-5.2794,-5.2901,-5.2877,-5.2954,-5.2916,-5.3016,-5.3034,-5.2976,-5.3049,-5.2985,-5.3054,-5.3019,-5.3195,-5.3151,-5.3193,-5.3181,-5.3324,-5.3312,-5.3795,-5.3854,-5.3396,-5.34,-5.3404,0,-5.2962,-5.306,-5.3044,-5.3088,-5.3091,-5.3164,-5.3199,-5.3115,-5.3157,-5.3173,-5.3248,-5.3311,-5.3357,-5.3479,-5.3443,-5.3496,-5.3453,-5.3619,-5.346,-5.3484,-5.3457,-5.3452,-5.3462,-5.3651,-5.3657,-5.3661,-5.3665,0,-5.3356,-5.3322,-5.3378,-5.3425,-5.3471,-5.3503,-5.3527,-5.3569,-5.3483,-5.3536,-5.3609,-5.3645,-5.3716,-5.378,-5.3821,-5.3817,-5.3728,-5.3715,-5.375,-5.3778,-5.3799,-5.3791,-5.3282,-5.3704,-5.37,-5.3697,-5.3695,-5.3694,-5.3652,-5.3732,-5.3734,-5.38,-5.3809,-5.3834,-5.3905,-5.3876,-5.3936,-5.3987,-5.3934,-5.4023,-5.4028,-5.4074,-5.4081,-5.4149,-5.408,-5.4131,-5.4143,-5.4158,-5.4179,-5.3787,-5.4156,-5.4155,-5.4154,-5.4153,-5.4152,0,-5.4041,-5.4035,-5.4097,-5.4134,-5.4186,-5.4097,-5.4118,-5.4168,-5.4248,-5.426,-5.4308,-5.4392,-5.4454,-5.4423,-5.4477,-5.4538,-5.4499,-5.4555,-5.455,-5.4551,-5.4237,-5.4202,-5.4586,-5.4586,-5.4586,-5.4586,-5.4586,-5.4586,-5.4249,-5.4381,-5.4348,-5.4484,-5.4477,-5.4564,-5.4584,-5.4606,-5.4616,-5.4715,-5.4766,-5.4745,-5.474,-5.4793,-5.4846,-5.4835,-5.4861,-5.4933,-5.4908,-5.4616,-5.4573,-5.4532,-5.4499,-5.4939,-5.4939,-5.5215,-5.5218,-5.522]},{"header":{"parameterUnit":"m.s-1","parameterCategory":1,"la1":30.2991,"la2":30.254,"lo1":-89.0895,"lo2":-89.0444,"dy":0.0017,"dx":0.0017,"nx":28,"ny":28,"refTime":"2024-08-24T09:00:00:Z","depth":0,"parameterNumber":3,"parameterNumberName":"V-component_of_WINDS"},"data":[0,0,0,0,0,0,0,0,0,0,0,0,0,0,0,0,0,0,0,0,0,0,0,0,0,0,0,0,0,0,0,0,0,0,0,0,0,0,0,0,0,0,0,0,0,0,0,0,0,0,0,0,0,0,0,0,0,0,-2.1282,-2.1282,0,-2.1298,-2.1299,-2.1299,-2.1261,-2.126,-2.1258,-2.1257,-2.1273,-2.1275,-2.1276,0,0,0,0,0,0,0,0,0,0,0,0,0,-2.1215,-2.1217,-2.1282,-2.1282,-2.1282,-2.1298,-2.1299,-2.1299,-2.1261,-2.126,-2.1258,-2.1257,-2.1273,-2.1275,-2.1276,0,0,0,0,0,0,0,0,0,0,0,0,0,-2.1239,-2.1217,-2.1282,-2.1265,-2.1264,-2.1298,-2.1299,-2.1299,-2.1261,-2.126,-2.1258,-2.1256,-2.1272,-2.1274,-2.1277,-2.1327,0,0,-2.1284,-2.1285,0,0,0,0,0,0,0,0,-2.1238,-2.1242,-2.1268,-2.1267,-2.1265,-2.1276,-2.1281,-2.1308,-2.1262,-2.1262,-2.1257,-2.1255,-2.1275,-2.1277,-2.1284,-2.1328,-2.1329,-2.1284,-2.1285,-2.1286,-2.1287,0,0,0,0,0,0,0,-2.1236,-2.1241,-2.1288,-2.1268,-2.1267,-2.1256,-2.1258,-2.1286,-2.1279,-2.1262,-2.1259,-2.1262,-2.1274,-2.1282,-2.1285,-2.1329,-2.1284,-2.1286,-2.1287,-2.1288,-2.1413,-2.1415,0,0,0,0,0,0,-2.1237,-2.124,-2.1288,-2.1289,-2.1247,-2.1259,-2.1261,-2.1274,-2.1278,-2.1277,-2.1264,-2.126,-2.1279,-2.1282,-2.1285,-2.1343,-2.1286,-2.1289,-2.129,-2.1411,-2.1413,-2.1415,0,0,0,0,0,0,-2.1236,-2.1242,-2.1287,-2.1264,-2.1269,-2.1262,-2.1278,-2.1275,-2.1283,-2.1279,-2.1278,-2.1273,-2.1278,-2.1282,-2.1317,-2.1343,-2.129,-2.1292,-2.1409,-2.1412,-2.1414,-2.1461,0,0,0,0,0,0,-2.1234,-2.1242,-2.1261,-2.1264,-2.127,-2.132,-2.1279,-2.1277,-2.1287,-2.1283,-2.1288,-2.1287,-2.1277,-2.1313,-2.1319,-2.1346,-2.1294,-2.1406,-2.141,-2.1414,-2.1457,-2.1465,-2.1472,0,0,0,0,0,-2.1232,-2.1274,-2.1263,-2.1269,-2.1295,-2.1321,-2.1324,-2.1312,-2.129,-2.1309,-2.1306,-2.1287,-2.134,-2.1317,-2.1323,-2.1351,-2.1405,-2.1409,-2.1413,-2.1454,-2.1464,-2.1472,0,0,0,0,0,0,-2.1275,-2.1274,-2.1261,-2.1306,-2.1314,-2.1315,-2.1339,-2.1323,-2.1337,-2.1333,-2.1316,-2.1318,-2.1355,-2.1357,-2.1332,-2.1399,-2.1368,-2.1374,-2.1397,-2.1406,-2.1414,-2.1412,-2.1295,0,0,0,0,0,-2.1289,-2.1311,-2.1309,-2.1349,-2.1353,-2.1346,-2.1357,-2.1346,-2.1354,-2.1357,-2.1357,-2.1364,-2.1382,-2.1394,-2.1411,-2.1457,-2.1457,-2.1479,-2.1487,-2.1493,-2.1498,-2.1521,-2.153,-2.143,-2.143,-2.143,0,0,-2.132,-2.1322,-2.1337,-2.1358,-2.1362,-2.1384,-2.1349,-2.1374,-2.139,-2.136,-2.1393,-2.1393,-2.14,-2.1441,-2.1459,-2.1443,-2.1525,-2.1498,-2.1503,-2.1505,-2.1526,-2.1536,-2.1544,-2.1433,-2.1432,-2.1432,0,0,-2.1386,-2.1391,-2.1423,-2.1429,-2.1436,-2.1431,-2.1438,-2.1441,-2.144,-2.1473,-2.1451,-2.1469,-2.1501,-2.1507,-2.1514,-2.1581,-2.1563,-2.1586,-2.1625,-2.1648,-2.1656,-2.1663,-2.1686,-2.1694,-2.1592,-2.1592,-2.1592,0,-2.1423,-2.1456,-2.1442,-2.1469,-2.1478,-2.1452,-2.1484,-2.149,-2.1502,-2.1509,-2.1491,-2.1529,-2.1533,-2.1573,-2.159,-2.1597,-2.1604,-2.1586,-2.1656,-2.1663,-2.1669,-2.1691,-2.1699,-2.1594,-2.1594,-2.1594,-2.1594,0,-2.15,-2.1523,-2.1549,-2.1561,-2.1573,-2.1602,-2.1592,-2.1605,-2.1594,-2.159,-2.1622,-2.1625,-2.1641,-2.165,-2.1639,-2.1689,-2.1679,-2.1659,-2.1627,-2.1682,-2.1702,-2.171,-2.1598,-2.1597,-2.1597,-2.1596,0,0,-2.1595,-2.1598,-2.1608,-2.1612,-2.1618,-2.1635,-2.1663,-2.1678,-2.169,-2.1699,-2.1721,-2.1748,-2.1729,-2.1737,-2.1726,-2.1746,-2.1798,-2.1724,-2.1724,-2.1737,-2.1851,-2.1866,-2.1875,-2.1786,-2.1787,-2.1789,-2.185,0,-2.166,-2.1707,-2.1695,-2.1742,-2.1762,-2.1737,-2.176,-2.1766,-2.1763,-2.1779,-2.1775,-2.1793,-2.1768,-2.1772,-2.1791,-2.1788,-2.182,-2.1783,-2.1805,-2.1806,-2.1804,-2.1886,-2.1902,-2.196,-2.1858,-2.1859,-2.186,0,-2.1742,-2.1754,-2.1803,-2.1804,-2.1812,-2.1833,-2.1846,-2.1862,-2.1867,-2.1863,-2.1871,-2.1856,-2.1882,-2.1851,-2.1886,-2.186,-2.1869,-2.1868,-2.187,-2.1871,-2.1836,-2.1889,-2.1978,-2.1986,-2.1873,-2.1872,-2.1871,0,-2.1805,-2.1833,-2.1865,-2.187,-2.1873,-2.1888,-2.189,-2.1893,-2.1903,-2.1913,-2.1919,-2.1933,-2.194,-2.1951,-2.1939,-2.1918,-2.1976,-2.1944,-2.1972,-2.1973,-2.1985,-2.1985,-2.2077,-2.1992,-2.1992,-2.1992,-2.1992,0,-2.1878,-2.1909,-2.1893,-2.1913,-2.1946,-2.1931,-2.1964,-2.1963,-2.1966,-2.1984,-2.1964,-2.1981,-2.1965,-2.1982,-2.1973,-2.2002,-2.2006,-2.2003,-2.2,-2.2004,-2.2005,-2.2009,-2.2005,-2.1994,-2.1994,-2.1993,-2.1993,0,-2.1954,-2.1945,-2.1978,-2.1977,-2.1978,-2.2002,-2.2001,-2.2019,-2.2013,-2.2037,-2.2041,-2.2033,-2.2051,-2.204,-2.2059,-2.2052,-2.2091,-2.2083,-2.2089,-2.2087,-2.2115,-2.2113,-2.2213,-2.2225,-2.2134,-2.2134,-2.2135,0,-2.2001,-2.2024,-2.2025,-2.2036,-2.2039,-2.2057,-2.2066,-2.2051,-2.2062,-2.2069,-2.2086,-2.2102,-2.2114,-2.2143,-2.2138,-2.2151,-2.2143,-2.2177,-2.2145,-2.2148,-2.2143,-2.2141,-2.2143,-2.2184,-2.2185,-2.2186,-2.2187,0,-2.2085,-2.2079,-2.2094,-2.2106,-2.2118,-2.2127,-2.2135,-2.2145,-2.213,-2.2143,-2.2161,-2.217,-2.2188,-2.2204,-2.2215,-2.2216,-2.2199,-2.2197,-2.2204,-2.2208,-2.2211,-2.2209,-2.2106,-2.2194,-2.2194,-2.2193,-2.2193,-2.2192,-2.2148,-2.2166,-2.2169,-2.2186,-2.2189,-2.2197,-2.2213,-2.2209,-2.2224,-2.2237,-2.2228,-2.2248,-2.2252,-2.2265,-2.2268,-2.2283,-2.2269,-2.228,-2.2283,-2.2285,-2.2289,-2.2209,-2.2285,-2.2285,-2.2285,-2.2285,-2.2285,0,-2.223,-2.223,-2.2245,-2.2256,-2.2269,-2.2251,-2.2258,-2.227,-2.2288,-2.2293,-2.2305,-2.2324,-2.2339,-2.2335,-2.2348,-2.2361,-2.2354,-2.2365,-2.2364,-2.2364,-2.2301,-2.2293,-2.2371,-2.2371,-2.2371,-2.2371,-2.2371,-2.2371,-2.2274,-2.2304,-2.2298,-2.2329,-2.2329,-2.2349,-2.2355,-2.2361,-2.2364,-2.2387,-2.2399,-2.2396,-2.2397,-2.241,-2.2422,-2.242,-2.2426,-2.244,-2.2436,-2.2377,-2.2369,-2.236,-2.2353,-2.2442,-2.2442,-2.2497,-2.2498,-2.2498]}]]